Location: Barcelona
(41.3830°N, 2.1830°E)
Time: 13:54:15
(UTC+01:00)

ISS - Pass Details

Date: 16 December 2017
Orbit: 402 x 406 km, 51.6° (Epoch: 16 December)

Event Time Altitude Azimuth Distance (km) Brightness Sun altitude
Rises 18:37:37 0° 300° (WNW) 2,329 0.7 -13.5°
Reaches altitude 10° 18:39:46 10° 292° (WNW) 1,465 -0.3 -13.9°
Maximum altitude 18:42:51 39° 222° (SW) 627 -2.4 -14.4°
Drops below altitude 10° 18:45:55 10° 152° (SSE) 1,454 -1.1 -15.0°
Enters shadow 18:47:44 - 145° (SE) 2,172 -0.3 -15.3°
